Regional Weather Roundup
Issued by NWS Charleston, SC

Current Version | Previous Version | Graphics & Text | Print | Product List | Glossary On
Versions: 1 2 3 4 5 6 7 8 9 10 11 12 13 14 15 16 17 18 19 20 21 22 23 24 25 26 27 28 29 30 31 32 33 34 35 36 37 38 39 40 41 42 43 44 45 46 47 48 49 50
000
ASUS42 KCHS 062026
RWRCHS

REGIONAL WEATHER ROUNDUP
NATIONAL WEATHER SERVICE CHARLESTON SC
300 PM EST FRI MAR 06 2015

NOTE: "FAIR" INDICATES FEW OR NO CLOUDS BELOW 12,000 FEET WITH NO
SIGNIFICANT WEATHER AND/OR OBSTRUCTIONS TO VISIBILITY.

NOT ALL STATIONS ARE QUALITY CONTROLLED BY THE NATIONAL
WEATHER SERVICE. USE DATA WITH CAUTION...ESPECIALLY
DEWPOINT OBSERVATIONS.

SCZ027-030-031-034>040-042>050-062100-
...SOUTHEAST SOUTH CAROLINA...

CITY           SKY/WX    TMP DP  RH WIND       PRES   REMARKS
N CHARLESTON   CLOUDY    46  31  55 N8        30.37F
WATERFRONT PRK   N/A     43 N/A N/A N8G16       N/A
MOUNT PLEASANT MOCLDY    45  32  61 CALM      30.36F
PINOPOLIS        N/A     45  30  57 N7        30.31F
MONCKS CORNER  CLOUDY    46  30  53 N7        30.37F
SUMMERVILLE    CLOUDY    46  34  61 N7        30.38S
BEAUFORT MCAS  CLOUDY    45  35  68 N13       30.37F
BEAUFORT ARPT  CLOUDY    45  37  76 N12       30.37S HAZE
HILTON HEAD IS CLOUDY    45  36  70 N12       30.38F
WALTERBORO     CLOUDY    48  36  61 N5        30.38S
ALLENDALE      CLOUDY    48  34  57 N8        30.38R

...SOUTHERN MIDLANDS AND PEE DEE...

CITY           SKY/WX    TMP DP  RH WIND       PRES   REMARKS
GEORGETOWN     NOT AVBL
KINGSTREE      NOT AVBL
ORANGEBURG     CLOUDY    46  29  51 NE5       30.38F
BARNWELL       CLOUDY    48  34  57 N9        30.39S
AIKEN          FAIR      46  27  46 N3        30.40F
MANNING        CLOUDY    46  14  27 N8        30.38S
COLUMBIA       MOSUNNY   48  27  44 VRB7      30.38F
SUMTER         SUNNY     47  26  44 NE5       30.37F
FLORENCE       SUNNY     46  20  35 NE10      30.39F
MYRTLE BEACH   CLOUDY    45  23  42 N14       30.39F
N MYRTLE BEACH CLOUDY    45  23  42 N9        30.37F

$$

GAZ063-065-086>088-099>101-113>116-118-119-134>141-150-062100-
...SOUTHEAST GEORGIA...

CITY           SKY/WX    TMP DP  RH WIND       PRES   REMARKS
SAVANNAH ARPT  CLOUDY    46  35  65 N12       30.38S
HUNTER AAF     CLOUDY    44  36  73 N8        30.35S
FORT STEWART   CLOUDY    45  36  70 N8        30.35S
STATESBORO     CLOUDY    47  37  69 NE7       30.38S
SYLVANIA       CLOUDY    48  39  70 N7        30.38F
CLAXTON        CLOUDY    45  37  76 N6        30.38S

...CSRA...CENTRAL AND FAR SOUTHEAST GEORGIA...

CITY           SKY/WX    TMP DP  RH WIND       PRES   REMARKS
THOMSON        SUNNY     53  34  49 N3        30.42F
AUGUSTA-BUSH   CLOUDY    50  30  46 N6        30.38F
AUGUSTA-DANIEL CLOUDY    50  29  44 N6        30.38F
SWAINSBORO     CLOUDY    50  30  46 E3        30.38F
VIDALIA        CLOUDY    46  37  71 N5        30.38S
EASTMAN        CLOUDY    49  40  70 N7        30.41S
HAZLEHURST     CLOUDY    47  40  75 NE5       30.36F
ALMA           CLOUDY    45  38  76 N10       30.36S
WAYCROSS       CLOUDY    49  45  85 N13       30.36R
JESUP          CLOUDY    48  41  76 NE9       30.36S
BAXLEY         CLOUDY    46  37  71 N7        30.37S
BRUNSWICK      CLOUDY    46  39  76 N7        30.35S
SAINT SIMONS   CLOUDY    45  38  76 N15G23    30.34S

$$

SCZ027-028-034-036>038-045-046-048>050-GAZ119-141-062100-
...LAKE AND SUPPLEMENTAL COASTAL OBSERVATIONS...

STATION/POSITION TIME  TEMP    WIND        PRES    WAVE   SWELL
                       AIR SEA DIR/SP/G            HT/PER HT/PER/DIR
                 (UTC) (F)     (DEG/KT/KT) (MB)    (FT/S) (FT/S/D)
UPR LAKE MARION  NOT AVBL
WINYAH BAY       1945   42     350/  6     1027.0F
LAKE MURRAY      2000   44     240/  5/  8 1028.4F
ACE BASIN NERRS  NOT AVBL
FORT PULASKI     2000   42 54  350/ 10/ 12 1028.8R
SAPELO ISLAND    2000   45      10/ 12     1027.0S

$$

ANZ835-935-AMZ111-154-330-350-352-354-370-450-454-472-062100-
...C-MAN AND BUOY OBSERVATIONS...

STATION/POSITION TIME  TEMP    WIND        PRES    WAVE   SWELL
                       AIR SEA DIR/SP/G            HT/PER HT/PER/DIR
                 (UTC) (F)     (DEG/KT/KT) (MB)    (FT/S) (FT/S/D)
BUOY 41004       1950   43 67   20/ 23/ 29 1026.2F   9/ 8
BUOY 41008       1950   44 55   20/ 23/ 27 1026.7R   7/ 7   3/ 70/ 9
FOLLY BEACH CMAN 2000   40      50/  7/  9 1028.7F
CAPERS NEARSHORE 1900   38      50/ 14/ 17   N/A
FRIPP NEARSHORE  1900   42      20/ 16/ 17 1027.5F


STATION/POSITION TIME  TEMP    WIND        PRES    WAVE   SWELL
                       AIR SEA DIR/SP/G            HT/PER HT/PER/DIR
                 (UTC) (F)     (DEG/KT/KT) (MB)    (FT/S) (FT/S/D)
5E ST. MARYS GA  1921      53                N/A     7/ 6   2/100/12
FRYING PAN BUOY  1950   38 57   20/ 19/ 23 1028.0F   8/ 8   3/100/11
BUOY 41025       NOT AVBL
CAPE LOOKOUT NC  2000          360/ 16/ 19 1028.4F
BUOY 41002       1950   64 72   40/ 17/ 21 1021.6S   9/10   7/350/10
BUOY 41010       1920   73 75   20/  4/  6 1021.0F
ST AUGUSTINE FL  2000   50     360/ 29/ 32 1025.2F


$$



USA.gov is the U.S. government's official web portal to all federal, state and local government web resources and services.